Hourly Data Report for September 04, 2017

All times are specified in Local Standard Time (LST). Add 1 hour to adjust for Daylight Saving Time where and when it is observed.

NAPPAN AUTO
NOVA SCOTIA

45°45'34.400" N
64°14'29.200" W
19.80 m
8203702
71311
XNP

Download Data

Hourly Data (September 2017)
Hourly Data Report for September 4, 2017
Temp Definition
°C
Dew Point Temp Definition
°C
Rel Hum Definition
%
Wind Dir Definition
10's deg

Wind Spd Definition
km/h
Visibility Definition
km
Stn Press Definition
kPa
Hmdx Definition


Wind Chill Definition


Weather Definition


TIME
00:00 13.2 11.8 92 13 13   100.91     LegendNANA
01:00 13.7 12.3 92 12 7   100.70     LegendNANA
02:00 14.7 13.2 91 14 18   100.48     LegendNANA
03:00 15.1 13.7 92 15 18   100.27     LegendNANA
04:00 15.8 14.6 92 16 20   100.12     LegendNANA
05:00 16.9 15.7 93 16 25   100.02     LegendNANA
06:00 17.2 16.1 93 18 21   99.95     LegendNANA
07:00 18.1 16.1 88 20 22   99.95     LegendNANA
08:00 15.6 12.7 83 20 31   99.97     LegendNANA
09:00 13.9 11.9 87 21 41   99.96     LegendNANA
10:00 13.6 12.6 94 21 32   99.98     LegendNANA
11:00 14.4 13.0 91 21 33   100.05     LegendNANA
12:00 14.8 12.8 88 22 29   100.14     LegendNANA
13:00 15.4 12.4 82 22 29   100.21     LegendNANA
14:00 16.4 12.5 78 23 29   100.28     LegendNANA
15:00 17.7 12.6 72 23 26   100.33     LegendNANA
16:00 17.2 12.2 72 23 31   100.40     LegendNANA
17:00 17.1 12.6 75 22 26   100.45     LegendNANA
18:00 16.0 12.1 78 22 25   100.50     LegendNANA
19:00 15.6 11.8 78 22 23   100.58     LegendNANA
20:00 15.5 11.8 79 22 27   100.67     LegendNANA
21:00 14.0 11.6 86 17 13   100.69     LegendNANA
22:00 14.5 11.6 83 19 17   100.73     LegendNANA
23:00 14.1 11.4 84 18 17   100.74     LegendNANA

Notes on Data Quality.

Legend

  • E = Estimated
  • M = Missing
  • NA = Not Available
  • ‡ = Partner data that is not subject to review by the National Climate Archives
Date modified: